This demonstration page uses our WeatherBlox Daily Observations layout. Learn more.

Left ArrowRight Arrow

40.92501, -98.34201

Hourly Observations for August 24, 2020

Temp ( °F °C ) Dew Point ( °F °C ) Humidity (%) Winds ( mph kmh ) Pressure ( in mb ) Visibility ( mi km ) Precip ( " mm )
12:53 am 00:53 Clear 75 23.9 65 18.3 71 71 S 8 13 29.97 1015 10 16 0.00 0.00
1:53 am 01:53 Clear 79 26.1 61 16.1 54 54 SSW 10 17 29.97 1015 10 16 0.00 0.00
2:53 am 02:53 Clear 77 25 60 15.6 56 56 SSW 13 20 29.98 1015 10 16 0.00 0.00
3:53 am 03:53 Clear 76 24.4 59 15 56 56 SSW 13 20 29.96 1015 10 16 0.00 0.00
4:53 am 04:53 Clear 75 23.9 59 15 58 58 SSW 14 22 29.97 1015 10 16 0.00 0.00
5:53 am 05:53 Clear 69 20.6 60 15.6 73 73 SSW 7 11 29.98 1015 10 16 0.00 0.00
6:53 am 06:53 Sunny 68 20 60 15.6 76 76 S 5 7 29.98 1015 10 16 0.00 0.00
7:53 am 07:53 Sunny 73 22.8 59 15 62 62 SSW 9 15 29.98 1015 10 16 0.00 0.00
8:53 am 08:53 Sunny 76 24.4 59 15 56 56 SSW 14 22 29.98 1015 10 16 0.00 0.00
9:53 am 09:53 Sunny 81 27.2 60 15.6 49 49 SSW 13 20 29.97 1015 10 16 0.00 0.00
10:53 am 10:53 Sunny 86 30 59 15 40 40 SW 13 20 29.99 1016 10 16 0.00 0.00
11:53 am 11:53 Sunny 90 32.2 60 15.6 37 37 SSW 9 15 29.99 1016 10 16 0.00 0.00
12:53 pm 12:53 Sunny 91 32.8 63 17.2 39 39 SSE 12 19 29.98 1015 10 16 0.00 0.00
1:53 pm 13:53 Sunny 93 33.9 61 16.1 34 34 S 15 24 29.97 1015 10 16 0.00 0.00
2:53 pm 14:53 Sunny 95 35 60 15.6 31 31 S 15 24 29.96 1015 10 16 0.00 0.00
3:53 pm 15:53 Sunny 95 35 59 15 30 30 S 18 30 29.94 1014 10 16 0.00 0.00
4:53 pm 16:53 Sunny 94 34.4 60 15.6 32 32 S 16 26 29.93 1014 10 16 0.00 0.00
5:53 pm 17:53 Sunny 91 32.8 66 18.9 44 44 SSE 10 17 29.94 1014 10 16 0.00 0.00
6:53 pm 18:53 Sunny 88 31.1 65 18.3 46 46 SSE 12 19 29.94 1014 10 16 0.00 0.00
7:53 pm 19:53 Sunny 83 28.3 67 19.4 59 59 SSE 8 13 29.93 1014 10 16 0.00 0.00
8:53 pm 20:53 Clear 81 27.2 66 18.9 61 61 SSE 8 13 29.93 1014 10 16 0.00 0.00
9:53 pm 21:53 Clear 79 26.1 65 18.3 62 62 S 10 17 29.95 1014 10 16 0.00 0.00
10:53 pm 22:53 Clear 77 25 64 17.8 64 64 S 14 22 29.93 1014 10 16 0.00 0.00
11:53 pm 23:53 Clear 77 25 62 16.7 60 60 S 9 15 29.95 1014 10 16 0.00 0.00

Powered by AerisWeather